Weather in Yelkin

Russia / Rostov Oblast     47°18′45″N   40°29′42″E
temp.,
°C
wind,
m/s
gust,
m/s
humid.,
%
clouds,
%
prec.,
mm/h
press.,
hPa
HPBL,
m
28 july, wed
wed2800:00+20wsw34611 0.0 101979
03:00+19wsw366378 0.0 1019107
06:00+20wsw35640 0.0 1018131
09:00+26nw33510 0.0 1018628
12:00+32ne22270 0.0 10162898
15:00+33nne22222 0.0 10153244
18:00+31ssw112410 0.0 10152415
21:00+25wsw34445 0.0 101543
29 july, thu
thu2900:00+23w22565 0.0 101511
03:00+21wnw23620 0.0 101524
06:00+22w22635 0.0 101531
09:00+29w22414 0.0 1014579
12:00+34sw22240 0.0 10132906
15:00+35w432223 0.0 10113118
18:00+33w43231 0.0 10102606
21:00+27nw33330 0.0 101133
30 july, fri
fri3000:00+24wsw11384 0.0 101111
03:00+23sw224133 0.0 101119
06:00+23sw22480 0.0 101131
09:00+30sw34316 0.0 1011630
12:00+35sw45225 0.0 10102611
15:00+36sw442011 0.0 10093133
18:00+35w23237 0.0 10083049
21:00+28nw22374 0.0 100814
31 july, sat
sat3100:00+25ese11411 0.0 100811
03:00+24wsw1146100 0.0 100912
06:00+24s22465 0.0 100921
09:00+31ssw233027 0.0 1009520
12:00+36ssw33191 0.0 10092453
15:00+37sw22160 0.0 10083471
18:00+36se21174 0.0 10083430
21:00+28sw22310 0.0 100917
1 august, sun
sun100:00+26nnw11340 0.0 100911
03:00+24ese33350 0.0 101020
06:00+24ese34340 0.0 101067
09:00+33e33220 0.0 1010537
12:00+37se45180 0.0 10093183
15:00+38se43150 0.0 10083486
18:00+37se23160 0.0 10083365
21:00+29se33260 0.0 100821